Year,Month,Day,Hour,Minute,Value (Times are PST for temperature in C)
2020,04,08,00,00,5.70
2020,04,08,00,01,5.70
2020,04,08,00,02,5.60
2020,04,08,00,03,5.60
2020,04,08,00,04,5.60
2020,04,08,00,05,5.60
2020,04,08,00,06,5.60
2020,04,08,00,07,5.60
2020,04,08,00,08,5.60
2020,04,08,00,09,5.60
2020,04,08,00,10,5.60
2020,04,08,00,11,5.60
2020,04,08,00,12,5.60
2020,04,08,00,13,5.50
2020,04,08,00,14,5.50
2020,04,08,00,15,5.40
2020,04,08,00,16,5.40
2020,04,08,00,17,5.40
2020,04,08,00,18,5.40
2020,04,08,00,19,5.40
2020,04,08,00,20,5.40
2020,04,08,00,21,5.40
2020,04,08,00,22,5.40
2020,04,08,00,23,5.30
2020,04,08,00,24,5.30
2020,04,08,00,25,5.30
2020,04,08,00,26,5.30
2020,04,08,00,27,5.30
2020,04,08,00,28,5.30
2020,04,08,00,29,5.20
2020,04,08,00,30,5.20
2020,04,08,00,31,5.20
2020,04,08,00,32,5.20
2020,04,08,00,33,5.10
2020,04,08,00,34,5.10
2020,04,08,00,35,5.10
2020,04,08,00,36,5.10
2020,04,08,00,37,5.00
2020,04,08,00,38,5.00
2020,04,08,00,39,5.00
2020,04,08,00,40,5.00
2020,04,08,00,41,4.90
2020,04,08,00,42,4.90
2020,04,08,00,43,4.90
2020,04,08,00,44,4.90
2020,04,08,00,45,4.90
2020,04,08,00,46,4.90
2020,04,08,00,47,4.90
2020,04,08,00,48,4.90
2020,04,08,00,49,4.90
2020,04,08,00,50,4.90
2020,04,08,00,51,4.90
2020,04,08,00,52,4.90
2020,04,08,00,53,4.90
2020,04,08,00,54,4.90
2020,04,08,00,55,4.90
2020,04,08,00,56,4.90
2020,04,08,00,57,4.90
2020,04,08,00,58,4.80
2020,04,08,00,59,4.80
2020,04,08,01,00,4.80
2020,04,08,01,01,4.80
2020,04,08,01,02,4.80
2020,04,08,01,03,4.80
2020,04,08,01,04,4.80
2020,04,08,01,05,4.80
2020,04,08,01,06,4.80
2020,04,08,01,07,4.80
2020,04,08,01,08,4.70
2020,04,08,01,09,4.70
2020,04,08,01,10,4.70
2020,04,08,01,11,4.70
2020,04,08,01,12,4.70
2020,04,08,01,13,4.70
2020,04,08,01,14,4.70
2020,04,08,01,15,4.70
2020,04,08,01,16,4.70
2020,04,08,01,17,4.70
2020,04,08,01,18,4.70
2020,04,08,01,19,4.70
2020,04,08,01,20,4.70
2020,04,08,01,21,4.70
2020,04,08,01,22,4.70
2020,04,08,01,23,4.70
2020,04,08,01,24,4.70
2020,04,08,01,25,4.70
2020,04,08,01,26,4.70
2020,04,08,01,27,4.70
2020,04,08,01,28,4.70
2020,04,08,01,29,4.70
2020,04,08,01,30,4.60
2020,04,08,01,31,4.60
2020,04,08,01,32,4.60
2020,04,08,01,33,4.60
2020,04,08,01,34,4.60
2020,04,08,01,35,4.60
2020,04,08,01,36,4.60
2020,04,08,01,37,4.60
2020,04,08,01,38,4.50
2020,04,08,01,39,4.50
2020,04,08,01,40,4.50
2020,04,08,01,41,4.50
2020,04,08,01,42,4.40
2020,04,08,01,43,4.40
2020,04,08,01,44,4.40
2020,04,08,01,45,4.40
2020,04,08,01,46,4.40
2020,04,08,01,47,4.40
2020,04,08,01,48,4.40
2020,04,08,01,49,4.40
2020,04,08,01,50,4.50
2020,04,08,01,51,4.50
2020,04,08,01,52,4.50
2020,04,08,01,53,4.50
2020,04,08,01,54,4.50
2020,04,08,01,55,4.50
2020,04,08,01,56,4.50
2020,04,08,01,57,4.50
2020,04,08,01,58,4.50
2020,04,08,01,59,4.40
2020,04,08,02,00,4.40
2020,04,08,02,01,4.40
2020,04,08,02,02,4.40
2020,04,08,02,03,4.30
2020,04,08,02,04,4.30
2020,04,08,02,05,4.30
2020,04,08,02,06,4.30
2020,04,08,02,07,4.30
2020,04,08,02,08,4.30
2020,04,08,02,09,4.20
2020,04,08,02,10,4.20
2020,04,08,02,11,4.20
2020,04,08,02,12,4.20
2020,04,08,02,13,4.20
2020,04,08,02,14,4.20
2020,04,08,02,15,4.20
2020,04,08,02,16,4.20
2020,04,08,02,17,4.20
2020,04,08,02,18,4.20
2020,04,08,02,19,4.30
2020,04,08,02,20,4.30
2020,04,08,02,21,4.30
2020,04,08,02,22,4.30
2020,04,08,02,23,4.30
2020,04,08,02,24,4.30
2020,04,08,02,25,4.30
2020,04,08,02,26,4.30
2020,04,08,02,27,4.30
2020,04,08,02,28,4.30
2020,04,08,02,29,4.30
2020,04,08,02,30,4.30
2020,04,08,02,31,4.30
2020,04,08,02,32,4.30
2020,04,08,02,33,4.30
2020,04,08,02,34,4.30
2020,04,08,02,35,4.30
2020,04,08,02,36,4.40
2020,04,08,02,37,4.40
2020,04,08,02,38,4.40
2020,04,08,02,39,4.40
2020,04,08,02,40,4.30
2020,04,08,02,41,4.30
2020,04,08,02,42,4.30
2020,04,08,02,43,4.30
2020,04,08,02,44,4.30
2020,04,08,02,45,4.30
2020,04,08,02,46,4.20
2020,04,08,02,47,4.20
2020,04,08,02,48,4.20
2020,04,08,02,49,4.10
2020,04,08,02,50,4.10
2020,04,08,02,51,4.10
2020,04,08,02,52,4.10
2020,04,08,02,53,4.10
2020,04,08,02,54,4.10
2020,04,08,02,55,4.10
2020,04,08,02,56,4.10
2020,04,08,02,57,4.10
2020,04,08,02,58,4.10
2020,04,08,02,59,4.10
2020,04,08,03,00,4.10
2020,04,08,03,01,4.10
2020,04,08,03,02,4.10
2020,04,08,03,03,4.10
2020,04,08,03,04,4.10
2020,04,08,03,05,4.00
2020,04,08,03,06,4.00
2020,04,08,03,07,4.00
2020,04,08,03,08,4.10
2020,04,08,03,09,4.10
2020,04,08,03,10,4.10
2020,04,08,03,11,4.10
2020,04,08,03,12,4.10
2020,04,08,03,13,4.10
2020,04,08,03,14,4.20
2020,04,08,03,15,4.20
2020,04,08,03,16,4.20
2020,04,08,03,17,4.20
2020,04,08,03,18,4.20
2020,04,08,03,19,4.10
2020,04,08,03,20,4.10
2020,04,08,03,21,4.10
2020,04,08,03,22,4.10
2020,04,08,03,23,4.10
2020,04,08,03,24,4.10
2020,04,08,03,25,4.10
2020,04,08,03,26,4.20
2020,04,08,03,27,4.20
2020,04,08,03,28,4.20
2020,04,08,03,29,4.20
2020,04,08,03,30,4.20
2020,04,08,03,31,4.20
2020,04,08,03,32,4.20
2020,04,08,03,33,4.20
2020,04,08,03,34,4.10
2020,04,08,03,35,4.10
2020,04,08,03,36,4.10
2020,04,08,03,37,4.10
2020,04,08,03,38,4.10
2020,04,08,03,39,4.10
2020,04,08,03,40,4.10
2020,04,08,03,41,4.10
2020,04,08,03,42,4.10
2020,04,08,03,43,4.10
2020,04,08,03,44,4.10
2020,04,08,03,45,4.10
2020,04,08,03,46,4.10
2020,04,08,03,47,4.10
2020,04,08,03,48,4.00
2020,04,08,03,49,4.00
2020,04,08,03,50,4.00
2020,04,08,03,51,4.00
2020,04,08,03,52,4.00
2020,04,08,03,53,4.00
2020,04,08,03,54,4.00
2020,04,08,03,55,4.00
2020,04,08,03,56,4.00
2020,04,08,03,57,4.00
2020,04,08,03,58,4.00
2020,04,08,03,59,3.90
2020,04,08,04,00,3.90
2020,04,08,04,01,3.90
2020,04,08,04,02,3.90
2020,04,08,04,03,3.90
2020,04,08,04,04,3.90
2020,04,08,04,05,3.90
2020,04,08,04,06,3.90
2020,04,08,04,07,3.90
2020,04,08,04,08,3.90
2020,04,08,04,09,3.90
2020,04,08,04,10,3.90
2020,04,08,04,11,3.80
2020,04,08,04,12,3.80
2020,04,08,04,13,3.80
2020,04,08,04,14,3.80
2020,04,08,04,15,3.80
2020,04,08,04,16,3.80
2020,04,08,04,17,3.80
2020,04,08,04,18,3.80
2020,04,08,04,19,3.80
2020,04,08,04,20,3.90
2020,04,08,04,21,3.90
2020,04,08,04,22,3.90
2020,04,08,04,23,3.90
2020,04,08,04,24,4.00
2020,04,08,04,25,4.00
2020,04,08,04,26,4.10
2020,04,08,04,27,4.10
2020,04,08,04,28,4.10
2020,04,08,04,29,4.10
2020,04,08,04,30,4.10
2020,04,08,04,31,4.20
2020,04,08,04,32,4.20
2020,04,08,04,33,4.20
2020,04,08,04,34,4.20
2020,04,08,04,35,4.30
2020,04,08,04,36,4.30
2020,04,08,04,37,4.30
2020,04,08,04,38,4.30
2020,04,08,04,39,4.30
2020,04,08,04,40,4.40
2020,04,08,04,41,4.40
2020,04,08,04,42,4.40
2020,04,08,04,43,4.50
2020,04,08,04,44,4.50
2020,04,08,04,45,4.50
2020,04,08,04,46,4.60
2020,04,08,04,47,4.60
2020,04,08,04,48,4.60
2020,04,08,04,49,4.70
2020,04,08,04,50,4.70
2020,04,08,04,51,4.70
2020,04,08,04,52,4.80
2020,04,08,04,53,4.80
2020,04,08,04,54,4.80
2020,04,08,04,55,4.80
2020,04,08,04,56,4.80
2020,04,08,04,57,4.80
2020,04,08,04,58,4.80
2020,04,08,04,59,4.90
2020,04,08,05,00,4.90
2020,04,08,05,01,4.90
2020,04,08,05,02,4.90
2020,04,08,05,03,4.90
2020,04,08,05,04,4.90
2020,04,08,05,05,5.00
2020,04,08,05,06,5.00
2020,04,08,05,07,5.00
2020,04,08,05,08,5.10
2020,04,08,05,09,5.00
2020,04,08,05,10,5.00
2020,04,08,05,11,5.00
2020,04,08,05,12,5.00
2020,04,08,05,13,5.10
2020,04,08,05,14,5.10
2020,04,08,05,15,5.10
2020,04,08,05,16,5.10
2020,04,08,05,17,5.10
2020,04,08,05,18,5.10
2020,04,08,05,19,5.20
2020,04,08,05,20,5.20
2020,04,08,05,21,5.20
2020,04,08,05,22,5.20
2020,04,08,05,23,5.10
2020,04,08,05,24,5.10
2020,04,08,05,25,5.10
2020,04,08,05,26,5.10
2020,04,08,05,27,5.10
2020,04,08,05,28,5.10
2020,04,08,05,29,5.10
2020,04,08,05,30,5.10
2020,04,08,05,31,5.20
2020,04,08,05,32,5.20
2020,04,08,05,33,5.20
2020,04,08,05,34,5.20
2020,04,08,05,35,5.10
2020,04,08,05,36,5.10
2020,04,08,05,37,5.10
2020,04,08,05,38,5.10
2020,04,08,05,39,5.10
2020,04,08,05,40,5.00
2020,04,08,05,41,5.00
2020,04,08,05,42,5.00
2020,04,08,05,43,5.00
2020,04,08,05,44,5.00
2020,04,08,05,45,5.00
2020,04,08,05,46,5.00
2020,04,08,05,47,4.90
2020,04,08,05,48,4.90
2020,04,08,05,49,4.90
2020,04,08,05,50,4.80
2020,04,08,05,51,4.80
2020,04,08,05,52,4.70
2020,04,08,05,53,4.70
2020,04,08,05,54,4.70
2020,04,08,05,55,4.70
2020,04,08,05,56,4.70
2020,04,08,05,57,4.70
2020,04,08,05,58,4.60
2020,04,08,05,59,4.60
2020,04,08,06,00,4.60
2020,04,08,06,01,4.60
2020,04,08,06,02,4.60
2020,04,08,06,03,4.50
2020,04,08,06,04,4.40
2020,04,08,06,05,4.40
2020,04,08,06,06,4.30
2020,04,08,06,07,4.30
2020,04,08,06,08,4.30
2020,04,08,06,09,4.30
2020,04,08,06,10,4.30
2020,04,08,06,11,4.30
2020,04,08,06,12,4.30
2020,04,08,06,13,4.40
2020,04,08,06,14,4.40
2020,04,08,06,15,4.50
2020,04,08,06,16,4.50
2020,04,08,06,17,4.50
2020,04,08,06,18,4.60
2020,04,08,06,19,4.60
2020,04,08,06,20,4.60
2020,04,08,06,21,4.60
2020,04,08,06,22,4.60
2020,04,08,06,23,4.70
2020,04,08,06,24,4.70
2020,04,08,06,25,4.70
2020,04,08,06,26,4.70
2020,04,08,06,27,4.70
2020,04,08,06,28,4.80
2020,04,08,06,29,4.80
2020,04,08,06,30,4.80
2020,04,08,06,31,4.80
2020,04,08,06,32,4.70
2020,04,08,06,33,4.70
2020,04,08,06,34,4.70
2020,04,08,06,35,4.70
2020,04,08,06,36,4.70
2020,04,08,06,37,4.70
2020,04,08,06,38,4.70
2020,04,08,06,39,4.70
2020,04,08,06,40,4.70
2020,04,08,06,41,4.70
2020,04,08,06,42,4.70
2020,04,08,06,43,4.70
2020,04,08,06,44,4.60
2020,04,08,06,45,4.60
2020,04,08,06,46,4.50
2020,04,08,06,47,4.50
2020,04,08,06,48,4.50
2020,04,08,06,49,4.50
2020,04,08,06,50,4.50
2020,04,08,06,51,4.60
2020,04,08,06,52,4.60
2020,04,08,06,53,4.60
2020,04,08,06,54,4.60
2020,04,08,06,55,4.60
2020,04,08,06,56,4.70
2020,04,08,06,57,4.60
2020,04,08,06,58,4.60
2020,04,08,06,59,4.60
2020,04,08,07,00,4.60
2020,04,08,07,01,4.60
2020,04,08,07,02,4.60
2020,04,08,07,03,4.60
2020,04,08,07,04,4.60
2020,04,08,07,05,4.60
2020,04,08,07,06,4.60
2020,04,08,07,07,4.60
2020,04,08,07,08,4.60
2020,04,08,07,09,4.70
2020,04,08,07,10,4.70
2020,04,08,07,11,4.70
2020,04,08,07,12,4.70
2020,04,08,07,13,4.70
2020,04,08,07,14,4.70
2020,04,08,07,15,4.70
2020,04,08,07,16,4.70
2020,04,08,07,17,4.70
2020,04,08,07,18,4.70
2020,04,08,07,19,4.70
2020,04,08,07,20,4.70
2020,04,08,07,21,4.70
2020,04,08,07,22,4.70
2020,04,08,07,23,4.70
2020,04,08,07,24,4.70
2020,04,08,07,25,4.70
2020,04,08,07,26,4.70
2020,04,08,07,27,4.80
2020,04,08,07,28,4.80
2020,04,08,07,29,4.80
2020,04,08,07,30,4.90
2020,04,08,07,31,4.90
2020,04,08,07,32,5.00
2020,04,08,07,33,5.00
2020,04,08,07,34,5.10
2020,04,08,07,35,5.20
2020,04,08,07,36,5.20
2020,04,08,07,37,5.30
2020,04,08,07,38,5.30
2020,04,08,07,39,5.30
2020,04,08,07,40,5.40
2020,04,08,07,41,5.50
2020,04,08,07,42,5.50
2020,04,08,07,43,5.60
2020,04,08,07,44,5.60
2020,04,08,07,45,5.60
2020,04,08,07,46,5.70
2020,04,08,07,47,5.70
2020,04,08,07,48,5.80
2020,04,08,07,49,5.80
2020,04,08,07,50,5.80
2020,04,08,07,51,5.90
2020,04,08,07,52,5.90
2020,04,08,07,53,6.00
2020,04,08,07,54,6.10
2020,04,08,07,55,6.10
2020,04,08,07,56,6.20
2020,04,08,07,57,6.20
2020,04,08,07,58,6.30
2020,04,08,07,59,6.30
2020,04,08,08,00,6.40
2020,04,08,08,01,6.40
2020,04,08,08,02,6.50
2020,04,08,08,03,6.60
2020,04,08,08,04,6.60
2020,04,08,08,05,6.70
2020,04,08,08,06,6.80
2020,04,08,08,07,6.90
2020,04,08,08,08,6.90
2020,04,08,08,09,7.00
2020,04,08,08,10,7.10
2020,04,08,08,11,7.20
2020,04,08,08,12,7.30
2020,04,08,08,13,7.40
2020,04,08,08,14,7.60
2020,04,08,08,15,7.70
2020,04,08,08,16,7.80
2020,04,08,08,17,7.90
2020,04,08,08,18,8.00
2020,04,08,08,19,8.00
2020,04,08,08,20,8.10
2020,04,08,08,21,8.20
2020,04,08,08,22,8.20
2020,04,08,08,23,8.30
2020,04,08,08,24,8.30
2020,04,08,08,25,8.30
2020,04,08,08,26,8.40
2020,04,08,08,27,8.40
2020,04,08,08,28,8.50
2020,04,08,08,29,8.50
2020,04,08,08,30,8.60
2020,04,08,08,31,8.60
2020,04,08,08,32,8.70
2020,04,08,08,33,8.70
2020,04,08,08,34,8.70
2020,04,08,08,35,8.80
2020,04,08,08,36,8.80
2020,04,08,08,37,8.80
2020,04,08,08,38,8.80
2020,04,08,08,39,8.90
2020,04,08,08,40,8.90
2020,04,08,08,41,8.90
2020,04,08,08,42,9.00
2020,04,08,08,43,9.00
2020,04,08,08,44,9.10
2020,04,08,08,45,9.10
2020,04,08,08,46,9.20
2020,04,08,08,47,9.20
2020,04,08,08,48,9.20
2020,04,08,08,49,9.30
2020,04,08,08,50,9.30
2020,04,08,08,51,9.30
2020,04,08,08,52,9.30
2020,04,08,08,53,9.30
2020,04,08,08,54,9.40
2020,04,08,08,55,9.40
2020,04,08,08,56,9.40
2020,04,08,08,57,9.50
2020,04,08,08,58,9.40
2020,04,08,08,59,9.40
2020,04,08,09,00,9.40
2020,04,08,09,01,9.50
2020,04,08,09,02,9.50
2020,04,08,09,03,9.50
2020,04,08,09,04,9.60
2020,04,08,09,05,9.60
2020,04,08,09,06,9.60
2020,04,08,09,07,9.60
2020,04,08,09,08,9.70
2020,04,08,09,09,9.70
2020,04,08,09,10,9.70
2020,04,08,09,11,9.70
2020,04,08,09,12,9.70
2020,04,08,09,13,9.70
2020,04,08,09,14,9.70
2020,04,08,09,15,9.70
2020,04,08,09,16,9.70
2020,04,08,09,17,9.70
2020,04,08,09,18,9.70
2020,04,08,09,19,9.70
2020,04,08,09,20,9.80
2020,04,08,09,21,9.80
2020,04,08,09,22,9.80
2020,04,08,09,23,9.80
2020,04,08,09,24,9.90
2020,04,08,09,25,9.90
2020,04,08,09,26,9.90
2020,04,08,09,27,9.90
2020,04,08,09,28,9.90
2020,04,08,09,29,9.90
2020,04,08,09,30,10.00
2020,04,08,09,31,10.10
2020,04,08,09,32,10.10
2020,04,08,09,33,10.20
2020,04,08,09,34,10.20
2020,04,08,09,35,10.30
2020,04,08,09,36,10.30
2020,04,08,09,37,10.30
2020,04,08,09,38,10.30
2020,04,08,09,39,10.40
2020,04,08,09,40,10.40
2020,04,08,09,41,10.40
2020,04,08,09,42,10.40
2020,04,08,09,43,10.40
2020,04,08,09,44,10.40
2020,04,08,09,45,10.50
2020,04,08,09,46,10.50
2020,04,08,09,47,10.60
2020,04,08,09,48,10.70
2020,04,08,09,49,10.70
2020,04,08,09,50,10.70
2020,04,08,09,51,10.70
2020,04,08,09,52,10.60
2020,04,08,09,53,10.60
2020,04,08,09,54,10.60
2020,04,08,09,55,10.70
2020,04,08,09,56,10.70
2020,04,08,09,57,10.80
2020,04,08,09,58,10.80
2020,04,08,09,59,10.90
2020,04,08,10,00,11.00
2020,04,08,10,01,11.10
2020,04,08,10,02,11.10
2020,04,08,10,03,11.10
2020,04,08,10,04,11.10
2020,04,08,10,05,11.20
2020,04,08,10,06,11.20
2020,04,08,10,07,11.20
2020,04,08,10,08,11.10
2020,04,08,10,09,11.10
2020,04,08,10,10,11.20
2020,04,08,10,11,11.20
2020,04,08,10,12,11.30
2020,04,08,10,13,11.40
2020,04,08,10,14,11.50
2020,04,08,10,15,11.50
2020,04,08,10,16,11.60
2020,04,08,10,17,11.50
2020,04,08,10,18,11.40
2020,04,08,10,19,11.40
2020,04,08,10,20,11.30
2020,04,08,10,21,11.30
2020,04,08,10,22,11.30
2020,04,08,10,23,11.40
2020,04,08,10,24,11.40
2020,04,08,10,25,11.40
2020,04,08,10,26,11.40
2020,04,08,10,27,11.40
2020,04,08,10,28,11.40
2020,04,08,10,29,11.40
2020,04,08,10,30,11.40
2020,04,08,10,31,11.50
2020,04,08,10,32,11.50
2020,04,08,10,33,11.60
2020,04,08,10,34,11.60
2020,04,08,10,35,11.60
2020,04,08,10,36,11.60
2020,04,08,10,37,11.60
2020,04,08,10,38,11.60
2020,04,08,10,39,11.60
2020,04,08,10,40,11.70
2020,04,08,10,41,11.70
2020,04,08,10,42,11.60
2020,04,08,10,43,11.60
2020,04,08,10,44,11.60
2020,04,08,10,45,11.60
2020,04,08,10,46,11.60
2020,04,08,10,47,11.70
2020,04,08,10,48,11.70
2020,04,08,10,49,11.80
2020,04,08,10,50,11.80
2020,04,08,10,51,11.90
2020,04,08,10,52,11.90
2020,04,08,10,53,11.80
2020,04,08,10,54,11.90
2020,04,08,10,55,11.90
2020,04,08,10,56,11.90
2020,04,08,10,57,12.00
2020,04,08,10,58,12.00
2020,04,08,10,59,12.00
2020,04,08,11,00,12.10
2020,04,08,11,01,12.10
2020,04,08,11,02,12.20
2020,04,08,11,03,12.20
2020,04,08,11,04,12.20
2020,04,08,11,05,12.20
2020,04,08,11,06,12.30
2020,04,08,11,07,12.30
2020,04,08,11,08,12.30
2020,04,08,11,09,12.30
2020,04,08,11,10,12.30
2020,04,08,11,11,12.30
2020,04,08,11,12,12.40
2020,04,08,11,13,12.40
2020,04,08,11,14,12.40
2020,04,08,11,15,12.40
2020,04,08,11,16,12.50
2020,04,08,11,17,12.50
2020,04,08,11,18,12.50
2020,04,08,11,19,12.50
2020,04,08,11,20,12.60
2020,04,08,11,21,12.60
2020,04,08,11,22,12.60
2020,04,08,11,23,12.70
2020,04,08,11,24,12.70
2020,04,08,11,25,12.70
2020,04,08,11,26,12.80
2020,04,08,11,27,12.80
2020,04,08,11,28,12.80
2020,04,08,11,29,12.70
2020,04,08,11,30,12.70
2020,04,08,11,31,12.80
2020,04,08,11,32,12.80
2020,04,08,11,33,12.80
2020,04,08,11,34,12.80
2020,04,08,11,35,12.90
2020,04,08,11,36,12.90
2020,04,08,11,37,12.80
2020,04,08,11,38,12.80
2020,04,08,11,39,12.80
2020,04,08,11,40,12.80
2020,04,08,11,41,12.80
2020,04,08,11,42,12.80
2020,04,08,11,43,12.80
2020,04,08,11,44,12.80
2020,04,08,11,45,12.70
2020,04,08,11,46,12.70
2020,04,08,11,47,12.70
2020,04,08,11,48,12.70
2020,04,08,11,49,12.70
2020,04,08,11,50,12.70
2020,04,08,11,51,12.70
2020,04,08,11,52,12.70
2020,04,08,11,53,12.70
2020,04,08,11,54,12.80
2020,04,08,11,55,12.80
2020,04,08,11,56,12.70
2020,04,08,11,57,12.70
2020,04,08,11,58,12.70
2020,04,08,11,59,12.70
2020,04,08,12,00,12.70
2020,04,08,12,01,12.80
2020,04,08,12,02,12.90
2020,04,08,12,03,12.90
2020,04,08,12,04,12.90
2020,04,08,12,05,13.00
2020,04,08,12,06,13.00
2020,04,08,12,07,13.00
2020,04,08,12,08,13.10
2020,04,08,12,09,13.10
2020,04,08,12,10,13.10
2020,04,08,12,11,13.10
2020,04,08,12,12,13.20
2020,04,08,12,13,13.30
2020,04,08,12,14,13.30
2020,04,08,12,15,13.30
2020,04,08,12,16,13.30
2020,04,08,12,17,13.30
2020,04,08,12,18,13.30
2020,04,08,12,19,13.30
2020,04,08,12,20,13.30
2020,04,08,12,21,13.30
2020,04,08,12,22,13.30
2020,04,08,12,23,13.30
2020,04,08,12,24,13.30
2020,04,08,12,25,13.20
2020,04,08,12,26,13.20
2020,04,08,12,27,13.20
2020,04,08,12,28,13.20
2020,04,08,12,29,13.20
2020,04,08,12,30,13.20
2020,04,08,12,31,13.20
2020,04,08,12,32,13.30
2020,04,08,12,33,13.30
2020,04,08,12,34,13.30
2020,04,08,12,35,13.30
2020,04,08,12,36,13.30
2020,04,08,12,37,13.30
2020,04,08,12,38,13.30
2020,04,08,12,39,13.40
2020,04,08,12,40,13.50
2020,04,08,12,41,13.60
2020,04,08,12,42,13.70
2020,04,08,12,43,13.70
2020,04,08,12,44,13.70
2020,04,08,12,45,13.80
2020,04,08,12,46,13.80
2020,04,08,12,47,13.80
2020,04,08,12,48,13.80
2020,04,08,12,49,13.90
2020,04,08,12,50,13.80
2020,04,08,12,51,13.80
2020,04,08,12,52,13.80
2020,04,08,12,53,13.80
2020,04,08,12,54,13.80
2020,04,08,12,55,13.80
2020,04,08,12,56,13.80
2020,04,08,12,57,13.80
2020,04,08,12,58,13.80
2020,04,08,12,59,13.80
2020,04,08,13,00,13.80
2020,04,08,13,01,13.80
2020,04,08,13,02,13.80
2020,04,08,13,03,13.80
2020,04,08,13,04,13.80
2020,04,08,13,05,13.80
2020,04,08,13,06,13.80
2020,04,08,13,07,13.90
2020,04,08,13,08,13.90
2020,04,08,13,09,13.90
2020,04,08,13,10,14.00
2020,04,08,13,11,14.00
2020,04,08,13,12,14.00
2020,04,08,13,13,14.00
2020,04,08,13,14,14.00
2020,04,08,13,15,14.00
2020,04,08,13,16,14.00
2020,04,08,13,17,14.00
2020,04,08,13,18,14.00
2020,04,08,13,19,14.10
2020,04,08,13,20,14.20
2020,04,08,13,21,14.20
2020,04,08,13,22,14.20
2020,04,08,13,23,14.20
2020,04,08,13,24,14.20
2020,04,08,13,25,14.30
2020,04,08,13,26,14.30
2020,04,08,13,27,14.30
2020,04,08,13,28,14.30
2020,04,08,13,29,14.30
2020,04,08,13,30,14.40
2020,04,08,13,31,14.40
2020,04,08,13,32,14.50
2020,04,08,13,33,14.50
2020,04,08,13,34,14.50
2020,04,08,13,35,14.40
2020,04,08,13,36,14.40
2020,04,08,13,37,14.40
2020,04,08,13,38,14.40
2020,04,08,13,39,14.40
2020,04,08,13,40,14.50
2020,04,08,13,41,14.50
2020,04,08,13,42,14.60
2020,04,08,13,43,14.70
2020,04,08,13,44,14.70
2020,04,08,13,45,14.60
2020,04,08,13,46,14.60
2020,04,08,13,47,14.60
2020,04,08,13,48,14.60
2020,04,08,13,49,14.60
2020,04,08,13,50,14.60
2020,04,08,13,51,14.60
2020,04,08,13,52,14.60
2020,04,08,13,53,14.60
2020,04,08,13,54,14.70
2020,04,08,13,55,14.70
2020,04,08,13,56,14.70
2020,04,08,13,57,14.70
2020,04,08,13,58,14.70
2020,04,08,13,59,14.70
2020,04,08,14,00,14.70
2020,04,08,14,01,14.60
2020,04,08,14,02,14.70
2020,04,08,14,03,14.70
2020,04,08,14,04,14.80
2020,04,08,14,05,14.80
2020,04,08,14,06,14.80
2020,04,08,14,07,14.70
2020,04,08,14,08,14.80
2020,04,08,14,09,14.80
2020,04,08,14,10,14.80
2020,04,08,14,11,14.80
2020,04,08,14,12,14.80
2020,04,08,14,13,14.80
2020,04,08,14,14,14.80
2020,04,08,14,15,14.80
2020,04,08,14,16,14.80
2020,04,08,14,17,14.80
2020,04,08,14,18,14.80
2020,04,08,14,19,14.80
2020,04,08,14,20,14.70
2020,04,08,14,21,14.70
2020,04,08,14,22,14.80
2020,04,08,14,23,14.80
2020,04,08,14,24,14.80
2020,04,08,14,25,14.80
2020,04,08,14,26,14.80
2020,04,08,14,27,14.90
2020,04,08,14,28,14.90
2020,04,08,14,29,14.90
2020,04,08,14,30,14.90
2020,04,08,14,31,14.90
2020,04,08,14,32,14.90
2020,04,08,14,33,14.90
2020,04,08,14,34,15.00
2020,04,08,14,35,15.00
2020,04,08,14,36,15.10
2020,04,08,14,37,15.20
2020,04,08,14,38,15.30
2020,04,08,14,39,15.40
2020,04,08,14,40,15.50
2020,04,08,14,41,15.60
2020,04,08,14,42,15.70
2020,04,08,14,43,15.70
2020,04,08,14,44,15.80
2020,04,08,14,45,15.80
2020,04,08,14,46,15.70
2020,04,08,14,47,15.70
2020,04,08,14,48,15.70
2020,04,08,14,49,15.60
2020,04,08,14,50,15.50
2020,04,08,14,51,15.40
2020,04,08,14,52,15.30
2020,04,08,14,53,15.30
2020,04,08,14,54,15.30
2020,04,08,14,55,15.30
2020,04,08,14,56,15.30
2020,04,08,14,57,15.30
2020,04,08,14,58,15.30
2020,04,08,14,59,15.30
2020,04,08,15,00,15.30
2020,04,08,15,01,15.30
2020,04,08,15,02,15.30
2020,04,08,15,03,15.30
2020,04,08,15,04,15.40
2020,04,08,15,05,15.40
2020,04,08,15,06,15.40
2020,04,08,15,07,15.30
2020,04,08,15,08,15.40
2020,04,08,15,09,15.40
2020,04,08,15,10,15.30
2020,04,08,15,11,15.30
2020,04,08,15,12,15.30
2020,04,08,15,13,15.30
2020,04,08,15,14,15.30
2020,04,08,15,15,15.40
2020,04,08,15,16,15.40
2020,04,08,15,17,15.40
2020,04,08,15,18,15.40
2020,04,08,15,19,15.40
2020,04,08,15,20,15.50
2020,04,08,15,21,15.50
2020,04,08,15,22,15.50
2020,04,08,15,23,15.40
2020,04,08,15,24,15.40
2020,04,08,15,25,15.40
2020,04,08,15,26,15.50
2020,04,08,15,27,15.50
2020,04,08,15,28,15.40
2020,04,08,15,29,15.30
2020,04,08,15,30,15.20
2020,04,08,15,31,15.10
2020,04,08,15,32,15.00
2020,04,08,15,33,15.00
2020,04,08,15,34,14.90
2020,04,08,15,35,14.90
2020,04,08,15,36,14.90
2020,04,08,15,37,14.90
2020,04,08,15,38,14.90
2020,04,08,15,39,14.90
2020,04,08,15,40,14.80
2020,04,08,15,41,14.80
2020,04,08,15,42,14.70
2020,04,08,15,43,14.60
2020,04,08,15,44,14.50
2020,04,08,15,45,14.30
2020,04,08,15,46,14.20
2020,04,08,15,47,14.10
2020,04,08,15,48,14.00
2020,04,08,15,49,13.80
2020,04,08,15,50,13.70
2020,04,08,15,51,13.60
2020,04,08,15,52,13.60
2020,04,08,15,53,13.50
2020,04,08,15,54,13.40
2020,04,08,15,55,13.30
2020,04,08,15,56,13.30
2020,04,08,15,57,13.30
2020,04,08,15,58,13.30
2020,04,08,15,59,13.30
2020,04,08,16,00,13.30
2020,04,08,16,01,13.30
2020,04,08,16,02,13.30
2020,04,08,16,03,13.40
2020,04,08,16,04,13.50
2020,04,08,16,05,13.50
2020,04,08,16,06,13.50
2020,04,08,16,07,13.50
2020,04,08,16,08,13.50
2020,04,08,16,09,13.50
2020,04,08,16,10,13.40
2020,04,08,16,11,13.30
2020,04,08,16,12,13.30
2020,04,08,16,13,13.20
2020,04,08,16,14,13.30
2020,04,08,16,15,13.30
2020,04,08,16,16,13.30
2020,04,08,16,17,13.30
2020,04,08,16,18,13.30
2020,04,08,16,19,13.30
2020,04,08,16,20,13.30
2020,04,08,16,21,13.30
2020,04,08,16,22,13.30
2020,04,08,16,23,13.30
2020,04,08,16,24,13.30
2020,04,08,16,25,13.40
2020,04,08,16,26,13.40
2020,04,08,16,27,13.40
2020,04,08,16,28,13.30
2020,04,08,16,29,13.30
2020,04,08,16,30,13.30
2020,04,08,16,31,13.30
2020,04,08,16,32,13.30
2020,04,08,16,33,13.30
2020,04,08,16,34,13.30
2020,04,08,16,35,13.30
2020,04,08,16,36,13.30
2020,04,08,16,37,13.40
2020,04,08,16,38,13.40
2020,04,08,16,39,13.40
2020,04,08,16,40,13.40
2020,04,08,16,41,13.40
2020,04,08,16,42,13.50
2020,04,08,16,43,13.50
2020,04,08,16,44,13.60
2020,04,08,16,45,13.60
2020,04,08,16,46,13.60
2020,04,08,16,47,13.60
2020,04,08,16,48,13.60
2020,04,08,16,49,13.50
2020,04,08,16,50,13.50
2020,04,08,16,51,13.50
2020,04,08,16,52,13.40
2020,04,08,16,53,13.40
2020,04,08,16,54,13.40
2020,04,08,16,55,13.30
2020,04,08,16,56,13.30
2020,04,08,16,57,13.30
2020,04,08,16,58,13.30
2020,04,08,16,59,13.30
2020,04,08,17,00,13.30
2020,04,08,17,01,13.30
2020,04,08,17,02,13.40
2020,04,08,17,03,13.40
2020,04,08,17,04,13.40
2020,04,08,17,05,13.50
2020,04,08,17,06,13.50
2020,04,08,17,07,13.50
2020,04,08,17,08,13.50
2020,04,08,17,09,13.50
2020,04,08,17,10,13.40
2020,04,08,17,11,13.40
2020,04,08,17,12,13.30
2020,04,08,17,13,13.30
2020,04,08,17,14,13.20
2020,04,08,17,15,13.20
2020,04,08,17,16,13.30
2020,04,08,17,17,13.30
2020,04,08,17,18,13.30
2020,04,08,17,19,13.30
2020,04,08,17,20,13.20
2020,04,08,17,21,13.20
2020,04,08,17,22,13.20
2020,04,08,17,23,13.30
2020,04,08,17,24,13.30
2020,04,08,17,25,13.30
2020,04,08,17,26,13.30
2020,04,08,17,27,13.30
2020,04,08,17,28,13.40
2020,04,08,17,29,13.30
2020,04,08,17,30,13.30
2020,04,08,17,31,13.30
2020,04,08,17,32,13.20
2020,04,08,17,33,13.20
2020,04,08,17,34,13.20
2020,04,08,17,35,13.30
2020,04,08,17,36,13.30
2020,04,08,17,37,13.30
2020,04,08,17,38,13.30
2020,04,08,17,39,13.40
2020,04,08,17,40,13.40
2020,04,08,17,41,13.40
2020,04,08,17,42,13.40
2020,04,08,17,43,13.40
2020,04,08,17,44,13.40